Location: Limerick
(52.6650°N, 8.6230°W)
Time: 19:21:43
(UTC+01:00)

ISS - Pass Details

Date: 25 May 2017
Orbit: 402 x 408 km, 51.6° (Epoch: 29 May)

Event Time Altitude Azimuth Distance (km) Brightness Sun altitude
Rises 03:13:39 0° 280° (W) 2,333 -0.1 -13.1°
Reaches altitude 10° 03:15:48 10° 273° (W) 1,469 -1.2 -13.0°
Maximum altitude 03:18:57 43° 201° (SSW) 578 -3.5 -12.7°
Drops below altitude 10° 03:22:05 10° 128° (SE) 1,461 -1.1 -12.5°
Sets 03:24:12 0° 121° (ESE) 2,317 0.0 -12.4°
